When you browse on this site, cookies collect data to enhance your experience and personalize the content and advertising you see.
Visit our Privacy Policy to learn more. By continuing to use the site, you agree to this use of cookies and data.
  • In Hungary
  • List of Countries
  • For 7 days
  • Water Temperature
  • Satellite Maps
  • Weather Map
  • News
  • Weather Widgets
  • user-avatar
    Login

    Hourly Weather Kavarna

    Today, 18 November, Sunday

    Time Temperature Precipitation Wind Pressure Humidity
    00:00 -1°C° 0 mm 8 mps 771 mmHg 87%
    01:00 -1°C° 0 mm 8 mps 771 mmHg 87%
    02:00 -1°C° 0 mm 8 mps 770 mmHg 88%
    03:00 -1°C° 0 mm 8 mps 770 mmHg 88%
    04:00 -1°C° 0 mm 7 mps 770 mmHg 89%
    05:00 -1°C° 0 mm 7 mps 770 mmHg 89%
    06:00 -1°C° 0 mm 7 mps 770 mmHg 89%
    07:00 -1°C° 0 mm 7 mps 769 mmHg 89%
    08:00 +1°C° 0 mm 6 mps 769 mmHg 89%
    09:00 +2°C° 0 mm 6 mps 769 mmHg 86%
    10:00 +3°C° 0 mm 6 mps 769 mmHg 84%
    11:00 +4°C° 0 mm 6 mps 768 mmHg 82%
    12:00 +4°C° 0 mm 6 mps 768 mmHg 81%
    13:00 +4°C° 0 mm 6 mps 767 mmHg 81%
    14:00 +5°C° 0 mm 6 mps 766 mmHg 81%
    15:00 +5°C° 0 mm 6 mps 766 mmHg 82%
    16:00 +4°C° 0 mm 7 mps 765 mmHg 84%
    17:00 +4°C° 0 mm 7 mps 765 mmHg 85%
    18:00 +5°C° 0.2 mm 7 mps 764 mmHg 85%
    19:00 +5°C° 0.2 mm 8 mps 764 mmHg 84%
    20:00 +6°C° 0.2 mm 8 mps 763 mmHg 84%
    21:00 +6°C° 0.5 mm 8 mps 763 mmHg 85%
    22:00 +6°C° 0.5 mm 9 mps 762 mmHg 85%
    23:00 +6°C° 0.5 mm 9 mps 762 mmHg 85%

    Tomorrow, 19 November, Monday

    Time Temperature Precipitation Wind Pressure Humidity
    00:00 +6°C° 1 mm 9 mps 761 mmHg 86%
    01:00 +6°C° 1 mm 10 mps 760 mmHg 87%
    02:00 +6°C° 1 mm 10 mps 760 mmHg 88%
    03:00 +6°C° 1.8 mm 10 mps 759 mmHg 89%
    04:00 +6°C° 1.8 mm 11 mps 758 mmHg 90%
    05:00 +6°C° 1.8 mm 11 mps 757 mmHg 91%
    06:00 +7°C° 3.5 mm 10 mps 757 mmHg 91%
    07:00 +7°C° 3.5 mm 9 mps 756 mmHg 91%
    08:00 +7°C° 3.5 mm 8 mps 756 mmHg 92%
    09:00 +7°C° 0.8 mm 8 mps 756 mmHg 91%
    10:00 +9°C° 0.8 mm 8 mps 756 mmHg 91%
    11:00 +9°C° 0.8 mm 7 mps 756 mmHg 91%
    12:00 +7°C° 0.1 mm 8 mps 756 mmHg 89%
    13:00 +6°C° 0.1 mm 9 mps 757 mmHg 87%
    14:00 +5°C° 0.1 mm 10 mps 757 mmHg 85%
    15:00 +5°C° 0 mm 10 mps 757 mmHg 84%
    16:00 +3°C° 0 mm 10 mps 758 mmHg 84%
    17:00 +2°C° 0 mm 10 mps 759 mmHg 83%
    18:00 +1°C° 0 mm 10 mps 760 mmHg 84%
    19:00 +1°C° 0 mm 9 mps 761 mmHg 84%
    20:00 +1°C° 0 mm 9 mps 762 mmHg 85%
    21:00 +1°C° 0 mm 9 mps 763 mmHg 85%
    22:00 +1°C° 0 mm 8 mps 764 mmHg 85%
    23:00 0°C° 0 mm 8 mps 764 mmHg 85%

    Day after tomorrow, 20 November, Tuesday

    Time Temperature Precipitation Wind Pressure Humidity
    00:00 0°C° 0 mm 7 mps 765 mmHg 85%
    01:00 0°C° 0 mm 7 mps 765 mmHg 86%
    02:00 +1°C° 0 mm 6 mps 766 mmHg 86%
    03:00 -1°C° 0 mm 6 mps 766 mmHg 87%
    04:00 0°C° 0 mm 5 mps 766 mmHg 87%
    05:00 -1°C° 0 mm 5 mps 766 mmHg 87%
    06:00 0°C° 0 mm 4 mps 767 mmHg 85%
    07:00 0°C° 0 mm 4 mps 767 mmHg 83%
    08:00 +1°C° 0 mm 3 mps 767 mmHg 81%
    09:00 +2°C° 0 mm 3 mps 767 mmHg 76%
    10:00 +3°C° 0 mm 3 mps 767 mmHg 72%
    11:00 +4°C° 0 mm 3 mps 767 mmHg 68%
    12:00 +5°C° 0 mm 3 mps 767 mmHg 68%
    13:00 +7°C° 0 mm 2 mps 766 mmHg 68%
    14:00 +7°C° 0 mm 2 mps 766 mmHg 69%
    15:00 +7°C° 0 mm 3 mps 766 mmHg 73%
    16:00 +7°C° 0 mm 3 mps 765 mmHg 77%
    17:00 +7°C° 0 mm 3 mps 765 mmHg 81%
    18:00 +6°C° 0 mm 4 mps 765 mmHg 83%
    19:00 +7°C° 0 mm 5 mps 765 mmHg 84%
    20:00 +7°C° 0 mm 5 mps 764 mmHg 86%
    21:00 +7°C° 0.2 mm 5 mps 764 mmHg 87%
    22:00 +8°C° 0.2 mm 6 mps 764 mmHg 88%
    23:00 +8°C° 0.2 mm 6 mps 763 mmHg 89%

    21 November, Wednesday

    Time Temperature Precipitation Wind Pressure Humidity
    00:00 +8°C° 0.3 mm 6 mps 763 mmHg 91%
    01:00 +9°C° 0.3 mm 6 mps 762 mmHg 92%
    02:00 +9°C° 0.3 mm 6 mps 762 mmHg 94%
    03:00 +9°C° 0.4 mm 6 mps 761 mmHg 94%
    04:00 +10°C° 0.4 mm 6 mps 761 mmHg 94%
    05:00 +10°C° 0.4 mm 7 mps 760 mmHg 95%
    06:00 +10°C° 0.5 mm 7 mps 760 mmHg 95%
    07:00 +11°C° 0.5 mm 7 mps 760 mmHg 95%
    08:00 +11°C° 0.5 mm 7 mps 759 mmHg 95%
    09:00 +11°C° 1.4 mm 7 mps 759 mmHg 95%
    10:00 +12°C° 1.4 mm 7 mps 758 mmHg 96%
    11:00 +12°C° 1.4 mm 7 mps 758 mmHg 96%
    12:00 +12°C° 2 mm 7 mps 758 mmHg 96%
    13:00 +12°C° 2 mm 7 mps 757 mmHg 96%
    14:00 +13°C° 2 mm 6 mps 756 mmHg 97%
    15:00 +13°C° 1.8 mm 6 mps 756 mmHg 97%
    16:00 +13°C° 1.8 mm 6 mps 756 mmHg 97%
    17:00 +13°C° 1.8 mm 6 mps 756 mmHg 97%
    18:00 +13°C° 0.5 mm 5 mps 756 mmHg 96%
    19:00 +13°C° 0.5 mm 5 mps 757 mmHg 96%
    20:00 +13°C° 0.5 mm 5 mps 757 mmHg 96%
    21:00 +13°C° 0.2 mm 5 mps 757 mmHg 95%
    22:00 +12°C° 0.2 mm 5 mps 757 mmHg 95%
    23:00 +12°C° 0.2 mm 5 mps 758 mmHg 95%

    22 November, Thursday

    Time Temperature Precipitation Wind Pressure Humidity
    00:00 +11°C° 0.2 mm 6 mps 758 mmHg 94%
    01:00 +11°C° 0.2 mm 6 mps 758 mmHg 93%
    02:00 +11°C° 0.2 mm 7 mps 759 mmHg 92%
    03:00 +10°C° 0.1 mm 8 mps 759 mmHg 91%
    04:00 +8°C° 0.1 mm 9 mps 759 mmHg 90%
    05:00 +8°C° 0.1 mm 10 mps 760 mmHg 89%
    06:00 +7°C° 0.2 mm 11 mps 761 mmHg 88%
    07:00 +6°C° 0.2 mm 11 mps 761 mmHg 87%
    08:00 +4°C° 0.2 mm 11 mps 762 mmHg 87%
    09:00 +4°C° 0.2 mm 11 mps 762 mmHg 86%
    10:00 +5°C° 0.2 mm 10 mps 763 mmHg 86%
    11:00 +3°C° 0.2 mm 10 mps 764 mmHg 85%
    12:00 +3°C° 0.2 mm 10 mps 764 mmHg 84%
    13:00 +5°C° 0.2 mm 9 mps 764 mmHg 83%
    14:00 +5°C° 0.2 mm 9 mps 764 mmHg 81%
    15:00 +5°C° 0.1 mm 9 mps 765 mmHg 81%
    16:00 +4°C° 0.1 mm 8 mps 765 mmHg 82%
    17:00 +4°C° 0.1 mm 8 mps 766 mmHg 82%
    18:00 +4°C° 0.1 mm 8 mps 766 mmHg 83%
    19:00 +4°C° 0.1 mm 8 mps 767 mmHg 83%
    20:00 +4°C° 0.1 mm 7 mps 767 mmHg 84%
    21:00 +4°C° 0.1 mm 7 mps 767 mmHg 84%
    22:00 +3°C° 0.1 mm 7 mps 768 mmHg 84%
    23:00 +3°C° 0.1 mm 7 mps 768 mmHg 85%

    23 November, Friday

    Time Temperature Precipitation Wind Pressure Humidity
    00:00 +3°C° 0.1 mm 7 mps 768 mmHg 86%
    01:00 +3°C° 0.1 mm 7 mps 768 mmHg 86%
    02:00 +3°C° 0.1 mm 7 mps 769 mmHg 87%
    03:00 +3°C° 0 mm 7 mps 769 mmHg 86%
    04:00 +3°C° 0 mm 7 mps 769 mmHg 86%
    05:00 +3°C° 0 mm 7 mps 769 mmHg 85%
    06:00 +3°C° 0 mm 7 mps 769 mmHg 84%
    07:00 +3°C° 0 mm 6 mps 770 mmHg 84%
    08:00 +3°C° 0 mm 6 mps 770 mmHg 83%
    09:00 +3°C° 0 mm 6 mps 770 mmHg 79%
    10:00 +4°C° 0 mm 6 mps 771 mmHg 75%
    11:00 +5°C° 0 mm 6 mps 771 mmHg 71%
    12:00 +5°C° 0 mm 6 mps 771 mmHg 68%
    13:00 +7°C° 0 mm 6 mps 771 mmHg 65%
    14:00 +7°C° 0 mm 5 mps 770 mmHg 63%
    15:00 +6°C° 0 mm 5 mps 770 mmHg 65%
    16:00 +6°C° 0 mm 5 mps 771 mmHg 68%
    17:00 +5°C° 0 mm 5 mps 771 mmHg 71%
    18:00 +5°C° 0 mm 5 mps 771 mmHg 72%
    19:00 +4°C° 0 mm 4 mps 771 mmHg 74%
    20:00 +4°C° 0 mm 4 mps 771 mmHg 76%
    21:00 +4°C° 0 mm 4 mps 771 mmHg 78%
    22:00 +4°C° 0 mm 4 mps 771 mmHg 79%
    23:00 +4°C° 0 mm 4 mps 771 mmHg 81%
    Show more